NOAA-18
1 28654U 05018A 10203.67563259 .00000184 00000-0 12662-3 0 4143
2 28654 098.9505 149.8404 0013802 316.4857 043.5213 14.11374571266445
NOAA-19
1 33591U 09005A 10203.67140934 .00000331 00000-0 20780-3 0 6124
2 33591 098.7880 145.0399 0013899 185.3529 174.7480 14.11070681 74918
HUBBLE
1 20580U 90037B 10203.15521287 .00000367 00000-0 15227-4 0 6074
2 20580 028.4704 011.5685 0003323 211.0255 149.0127 15.01000605910018
ISS
1 25544U 98067A 10203.99595852 .00008007 00000-0 66380-4 0 5659
2 25544 051.6455 047.3099 0008320 136.8499 013.3321 15.71272503669101
CO-58
1 28895U 05043F 10203.21021823 .00000063 00000-0 22598-4 0 6377
2 28895 098.0106 086.5206 0017827 172.1562 187.9932 14.59911397252090
FALCON
1 30776U 07006E 10202.40894399 .00000372 00000-0 29642-4 0 08883
2 30776 035.4329 196.5174 0000399 074.7547 285.3213 15.03718478185214
MAST
1 31126U 07012K 10203.67251296 .00000028 00000-0 16417-4 0 9192
2 31126 097.9357 243.8460 0095644 115.4850 245.6263 14.53603337173211
CAPE1
1 31130U 07012P 10202.79383944 -.00000197 00000-0 -35000-4 0 9395
2 31130 097.9359 240.3522 0104001 126.3824 234.6971 14.52198371172689
COMPASS
1 32787U 08021E 10202.19984587 -.00000043 00000-0 12742-5 0 07317
2 32787 097.8929 266.4883 0015865 170.5262 189.6266 14.81910418120534
AAUSAT2
1 32788U 08021F 10203.14480724 .00000545 00000-0 75128-4 0 7220
2 32788 097.8921 267.5543 0015335 168.2345 191.9225 14.82058559120687
DO-64
1 32789U 08021G 10202.74510147 .00000617 00000-0 83876-4 0 07431
2 32789 097.8982 267.6725 0015850 167.8401 192.3202 14.82216443120620
CO-66
1 32791U 08021J 10203.64494972 .00000123 00000-0 22257-4 0 7237
2 32791 097.8939 267.9233 0016146 164.2715 195.8974 14.81692416120700
RS-30
1 32953U 08025A 10203.54463007 .00000010 00000-0 00000 0 0 8890
2 32953 082.5009 007.6863 0019380 028.2263 331.9863 12.43006625 98135
TACSAT-3
1 35001U 09028A 10202.89049264 .00003670 00000-0 88672-4 0 03406
2 35001 040.4564 005.6063 0022249 267.5387 092.2881 15.42063997065996
PHARMSAT
1 35002U 09028B 10203.80383344 .00003056 00000-0 73399-4 0 3216
2 35002 040.4702 357.9937 0025401 277.0448 082.7477 15.42566227 66159
HAWKSAT1
1 35003U 09028C 10203.83214184 .00006987 00000-0 14347-3 0 3443
2 35003 040.4610 351.5551 0023527 292.6975 067.1353 15.45933564 66239
CP6
1 35004U 09028D 10203.74424217 .00008347 00000-0 16516-3 0 3402
2 35004 040.4609 350.8789 0022413 294.7955 065.0532 15.46861821 66229
AEROCUB3
1 35005U 09028E 10202.83023761 .00026795 00000-0 41390-3 0 3866
2 35005 040.4686 352.1398 0020186 308.5721 051.3289 15.53219826 66133
CASTOR
1 35694U 09038F 10203.73087050 .00167107 25115-4 16669-3 0 5798
2 35694 051.6314 008.7596 0003721 308.6987 051.3827 16.10734995 56774
METEOR-M
1 35865U 09049A 10203.74231965 .00000176 00000-0 10000-3 0 4940
2 35865 098.7557 257.2838 0001712 277.7439 082.3511 14.21830954 43773
RS-38
1 35869U 09049E 10203.70996592 .00000177 00000-0 10000-3 0 5036
2 35869 098.7541 257.2860 0003887 266.5625 093.5095 14.21985499 43779
